This is the latest recevied weather packets stored in our database for station/object N8BAP. If no packets are shown the sender has not sent any weather packets the latest 10 day(s).
| Time | Temp. | Humidity | Pressure | Rain* | Wind** | Luminosity | Snow |
|---|---|---|---|---|---|---|---|
| 1788476516 | 32.22° C | 59% | 1020.9 hPa | 0 mm | - | 58 W/m² | - |
| 1788476212 | 32.22° C | 62% | 1021.1 hPa | 0 mm | - | 78 W/m² | - |
| 1788475909 | 31.67° C | 61% | 1020.8 hPa | 0 mm | - | 99 W/m² | - |
| 1788475604 | 31.67° C | 61% | 1021 hPa | 0 mm | - | 105 W/m² | - |
| 1788475301 | 31.67° C | 61% | 1021 hPa | 0 mm | - | 70 W/m² | - |
| 1788474996 | 31.67° C | 61% | 1020.8 hPa | 0 mm | - | 58 W/m² | - |
| 1788474694 | 31.67° C | 61% | 1020.7 hPa | 0 mm | - | 91 W/m² | - |
| 1788474389 | 32.22° C | 60% | 1020.8 hPa | 0 mm | - | 115 W/m² | - |
| 1788474088 | 32.22° C | 58% | 1020.7 hPa | 0 mm | - | 82 W/m² | - |
| 1788473784 | 32.78° C | 57% | 1020.9 hPa | 0 mm | - | 144 W/m² | - |
| 1788473481 | 32.78° C | 57% | 1020.6 hPa | 0 mm | - | 181 W/m² | - |
| 1788473180 | 32.78° C | 58% | 1020.8 hPa | 0 mm | - | 192 W/m² | - |
| 1788472875 | 33.33° C | 58% | 1020.6 hPa | 0 mm | - | 217 W/m² | - |
| 1788472574 | 33.33° C | 54% | 1020.2 hPa | 0 mm | - | 214 W/m² | - |
| 1788472269 | 33.33° C | 54% | 1020.2 hPa | 0 mm | - | 236 W/m² | - |
| 1788471968 | 33.33° C | 55% | 1020.1 hPa | 0 mm | - | 246 W/m² | - |
| 1788471663 | 33.33° C | 54% | 1020.1 hPa | 0 mm | - | 197 W/m² | - |
| 1788471358 | 33.33° C | 54% | 1020 hPa | 0 mm | - | 267 W/m² | - |
| 1788471054 | 33.89° C | 55% | 1020 hPa | 0 mm | - | 287 W/m² | - |
| 1788470750 | 33.89° C | 55% | 1020 hPa | 0 mm | - | 289 W/m² | - |
| 1788470445 | 33.89° C | 53% | 1020.1 hPa | 0 mm | - | 294 W/m² | - |
| 1788470139 | 33.89° C | 52% | 1020 hPa | 0 mm | - | 307 W/m² | - |
| 1788469836 | 33.89° C | 51% | 1020 hPa | 0 mm | - | 342 W/m² | - |
| 1788469531 | 33.89° C | 50% | 1020 hPa | 0 mm | - | 373 W/m² | - |
| 1788469227 | 33.89° C | 51% | 1020.2 hPa | 0 mm | - | 391 W/m² | - |
* Rain latest hour (hover to see other rain measurements)
** Current wind speed in m/s (hover to see current wind gust speed)